Location: Unspecified
(49.2170°N, 0.0000°E)
Time: 20:41:33
(UTC+00:00)

Transit 4A - Pass Details

Date: 21 June 2019
Orbit: 862 x 982 km, 66.8° (Epoch: 16 July)

Event Time Altitude Azimuth Distance (km) Brightness Sun altitude
Rises 07:06:01 0° 167° (SSE) 3,607 11.1 27.8°
Reaches altitude 10° 07:09:07 10° 152° (SSE) 2,685 10.7 28.4°
Maximum altitude 07:13:41 21° 105° (ESE) 2,009 11.5 29.1°
Drops below altitude 10° 07:18:19 10° 59° (ENE) 2,736 11.5 29.9°
Sets 07:21:30 0° 44° (NE) 3,695 11.6 30.4°
